Location: Eyeline Observatory
(43.2182°N, 78.8632°W)
Time: 23:10:55
(UTC-05:00)

Vanguard 2 - Pass Details

Date: 26 January 2018
Orbit: 553 x 2939 km, 32.9° (Epoch: 23 February)

Event Time Altitude Azimuth Distance (km) Brightness Sun altitude
Rises 07:26:54 0° 269° (W) 4,772 11.0 -2.5°
Reaches altitude 10° 07:30:09 10° 259° (W) 4,107 10.8 -1.9°
Maximum altitude 07:39:48 31° 204° (SSW) 3,500 10.9 -0.4°
Drops below altitude 10° 07:52:57 10° 151° (SSE) 5,607 13.0 1.8°
Sets 07:58:26 0° 142° (SE) 6,753 13.8 2.7°
